Weather History for Litchfield, MN

Change the Weather History Date:

Thursday, February 28, 2013

  Actual Average Record
Temperature  
Mean Temperature 22 °F -  
Max Temperature 28 °F 34 °F 53 °F (1985)
Min Temperature 17 °F 16 °F -30 °F (1962)
Degree Days  
Heating Degree Days 42    
Moisture  
Dew Point 21 °F    
Average Humidity 80    
Maximum Humidity 93    
Minimum Humidity 69    
Precipitation  
Precipitation 0.00 in - - ()
Sea Level Pressure  
Sea Level Pressure 30.16 in    
Wind  
Wind Speed 7 mph (North)    
Max Wind Speed 13 mph    
Max Gust Speed -    
Visibility 10 miles    
Events      
Averages and records for this station are not official NWS values.
T = Trace of Precipitation, MM = Missing Value Source: NWS Daily Summary

Daily Weather History Graph

Daily Weather History Graph

Search for Another Location

Airport:

Trip Planner

Search our weather history database for the weather conditions in past years. The results will help you decide how hot, cold, wet, or windy it might be!

Date:

Astronomy

Feb. 28, 2013 Rise Set
Actual Time 6:57 AM CST 6:04 PM CST
Civil Twilight 6:27 AM CST 6:34 PM CST
Nautical Twilight 5:53 AM CST 7:08 PM CST
Astronomical Twilight 5:19 AM CST 7:42 PM CST
Moon 9:44 PM CST (2/28) 7:56 AM CST (2/28)
Length of Visible Light 12h 06m
Length of Day
11h 07m
Waning Gibbous, 90% of the Moon is Illuminated
Feb 28
Waning Gibbous
Mar 4
Last Quarter
Mar 11
New
Mar 19
First Quarter
Mar 27
Full

Hourly Weather History & Observations

Time (CST) Temp. Windchill Dew Point Humidity Pressure Visibility Wind Dir Wind Speed Gust Speed Precip Events Conditions
12:13 AM 21.2 °F 14.9 °F 19.4 °F 93% 30.07 in 10.0 mi NW 4.6 mph - N/A   Overcast
12:33 AM 24.8 °F 16.9 °F 21.2 °F 86% 30.07 in 10.0 mi NNW 6.9 mph - N/A   Overcast
12:52 AM 24.8 °F 19.1 °F 21.2 °F 86% 30.07 in 10.0 mi NNW 4.6 mph - N/A   Overcast
1:13 AM 26.6 °F 18.2 °F 21.2 °F 80% 30.08 in 10.0 mi NNW 8.1 mph - N/A   Overcast
1:32 AM 26.6 °F 18.2 °F 21.2 °F 80% 30.08 in 10.0 mi North 8.1 mph - N/A   Overcast
1:53 AM 26.6 °F 18.2 °F 23.0 °F 86% 30.08 in 10.0 mi NNW 8.1 mph - N/A   Overcast
2:13 AM 26.6 °F 20.0 °F 21.2 °F 80% 30.08 in 10.0 mi NW 5.8 mph - N/A   Overcast
2:32 AM 26.6 °F 21.2 °F 21.2 °F 80% 30.08 in 10.0 mi NW 4.6 mph - N/A   Overcast
2:53 AM 26.6 °F 19.1 °F 23.0 °F 86% 30.08 in 10.0 mi NW 6.9 mph - N/A   Overcast
3:13 AM 26.6 °F 20.0 °F 23.0 °F 86% 30.09 in 10.0 mi WNW 5.8 mph - N/A   Overcast
3:53 AM 28.4 °F 23.3 °F 23.0 °F 80% 30.09 in 10.0 mi NW 4.6 mph - N/A   Overcast
4:32 AM 28.4 °F 20.4 °F 23.0 °F 80% 30.10 in 10.0 mi NW 8.1 mph - N/A   Overcast
4:53 AM 28.4 °F 20.4 °F 23.0 °F 80% 30.11 in 10.0 mi NW 8.1 mph - N/A   Overcast
5:13 AM 28.4 °F 21.2 °F 23.0 °F 80% 30.11 in 10.0 mi NW 6.9 mph - N/A   Overcast
5:32 AM 26.6 °F 20.0 °F 23.0 °F 86% 30.11 in 10.0 mi NW 5.8 mph - N/A   Overcast
5:53 AM 28.4 °F 22.2 °F 24.8 °F 86% 30.12 in 10.0 mi North 5.8 mph - N/A   Overcast
6:13 AM 28.4 °F 22.2 °F 24.8 °F 86% 30.12 in 10.0 mi NNW 5.8 mph - N/A   Overcast
6:32 AM 28.4 °F 22.2 °F 24.8 °F 86% 30.12 in 10.0 mi North 5.8 mph - N/A   Overcast
6:53 AM 28.4 °F 20.4 °F 23.0 °F 80% 30.13 in 10.0 mi NNE 8.1 mph - N/A   Overcast
7:13 AM 28.4 °F 21.2 °F 23.0 °F 80% 30.13 in 10.0 mi North 6.9 mph - N/A   Overcast
7:32 AM 28.4 °F 20.4 °F 23.0 °F 80% 30.13 in 10.0 mi North 8.1 mph - N/A   Overcast
8:13 AM 28.4 °F 19.1 °F 23.0 °F 80% 30.14 in 10.0 mi North 10.4 mph - N/A   Overcast
8:32 AM 28.4 °F 18.0 °F 23.0 °F 80% 30.15 in 10.0 mi North 12.7 mph - N/A   Overcast
8:53 AM 28.4 °F 18.5 °F 23.0 °F 80% 30.15 in 10.0 mi North 11.5 mph - N/A   Overcast
9:13 AM 28.4 °F 19.1 °F 23.0 °F 80% 30.15 in 10.0 mi North 10.4 mph - N/A   Overcast
9:53 AM 28.4 °F 19.7 °F 21.2 °F 74% 30.16 in 10.0 mi NNE 9.2 mph - N/A   Overcast
10:13 AM 28.4 °F 20.4 °F 21.2 °F 74% 30.16 in 10.0 mi NNE 8.1 mph - N/A   Overcast
10:32 AM 28.4 °F 22.2 °F 21.2 °F 74% 30.17 in 10.0 mi NE 5.8 mph - N/A   Overcast
10:53 AM 28.4 °F 22.2 °F 23.0 °F 80% 30.17 in 10.0 mi NNE 5.8 mph - N/A   Overcast
11:13 AM 28.4 °F 21.2 °F 23.0 °F 80% 30.17 in 10.0 mi NNE 6.9 mph - N/A   Overcast
11:32 AM 28.4 °F 19.7 °F 21.2 °F 74% 30.17 in 10.0 mi NNE 9.2 mph - N/A   Overcast
11:53 AM 28.4 °F 20.4 °F 21.2 °F 74% 30.18 in 10.0 mi North 8.1 mph - N/A   Overcast
12:13 PM 28.4 °F 19.1 °F 21.2 °F 74% 30.18 in 10.0 mi NNE 10.4 mph - N/A   Overcast
12:32 PM 28.4 °F 20.4 °F 21.2 °F 74% 30.17 in 10.0 mi NNE 8.1 mph - N/A   Overcast
12:53 PM 28.4 °F 18.5 °F 21.2 °F 74% 30.17 in 10.0 mi NNE 11.5 mph - N/A   Overcast
1:12 PM 28.4 °F 20.4 °F 21.2 °F 74% 30.17 in 10.0 mi NNE 8.1 mph - N/A   Overcast
1:33 PM 28.4 °F 20.4 °F 21.2 °F 74% 30.17 in 10.0 mi North 8.1 mph - N/A   Overcast
1:53 PM 28.4 °F 20.4 °F 21.2 °F 74% 30.17 in 10.0 mi NNE 8.1 mph - N/A   Overcast
2:12 PM 28.4 °F 20.4 °F 21.2 °F 74% 30.16 in 10.0 mi North 8.1 mph - N/A   Overcast
2:33 PM 28.4 °F 21.2 °F 21.2 °F 74% 30.17 in 10.0 mi North 6.9 mph - N/A   Overcast
2:53 PM 28.4 °F 19.7 °F 19.4 °F 69% 30.17 in 10.0 mi NNE 9.2 mph - N/A   Overcast
3:12 PM 28.4 °F 19.7 °F 21.2 °F 74% 30.17 in 10.0 mi North 9.2 mph - N/A   Overcast
3:33 PM 28.4 °F 19.7 °F 21.2 °F 74% 30.17 in 10.0 mi North 9.2 mph - N/A   Overcast
3:53 PM 28.4 °F 19.7 °F 21.2 °F 74% 30.18 in 10.0 mi North 9.2 mph - N/A   Overcast
4:12 PM 28.4 °F 20.4 °F 21.2 °F 74% 30.18 in 10.0 mi North 8.1 mph - N/A   Overcast
4:33 PM 28.4 °F 20.4 °F 21.2 °F 74% 30.18 in 10.0 mi North 8.1 mph - N/A   Overcast
4:53 PM 28.4 °F 21.2 °F 21.2 °F 74% 30.18 in 10.0 mi North 6.9 mph - N/A   Overcast
5:12 PM 28.4 °F 21.2 °F 21.2 °F 74% 30.19 in 10.0 mi North 6.9 mph - N/A   Overcast
5:33 PM 28.4 °F 22.2 °F 21.2 °F 74% 30.19 in 10.0 mi North 5.8 mph - N/A   Overcast
5:53 PM 28.4 °F 21.2 °F 21.2 °F 74% 30.19 in 10.0 mi North 6.9 mph - N/A   Overcast
6:12 PM 28.4 °F 21.2 °F 21.2 °F 74% 30.20 in 10.0 mi North 6.9 mph - N/A   Overcast
6:33 PM 28.4 °F 21.2 °F 21.2 °F 74% 30.20 in 10.0 mi North 6.9 mph - N/A   Overcast
6:53 PM 28.4 °F 22.2 °F 21.2 °F 74% 30.21 in 10.0 mi North 5.8 mph - N/A   Overcast
7:12 PM 26.6 °F 20.0 °F 21.2 °F 80% 30.21 in 10.0 mi North 5.8 mph - N/A   Overcast
7:33 PM 24.8 °F 17.9 °F 19.4 °F 80% 30.21 in 10.0 mi North 5.8 mph - N/A   Scattered Clouds
7:53 PM 24.8 °F 17.9 °F 19.4 °F 80% 30.21 in 10.0 mi North 5.8 mph - N/A   Clear
8:12 PM 23.0 °F 17.0 °F 17.6 °F 80% 30.22 in 10.0 mi North 4.6 mph - N/A   Clear
8:33 PM 21.2 °F 13.6 °F 17.6 °F 86% 30.22 in 10.0 mi North 5.8 mph - N/A   Clear
9:12 PM 21.2 °F 13.6 °F 17.6 °F 86% 30.22 in 10.0 mi NNW 5.8 mph - N/A   Clear
9:33 PM 19.4 °F 10.4 °F 15.8 °F 86% 30.22 in 10.0 mi NNW 6.9 mph - N/A   Clear
10:12 PM 19.4 °F 9.5 °F 15.8 °F 86% 30.23 in 10.0 mi NNW 8.1 mph - N/A   Clear
10:33 PM 19.4 °F 11.5 °F 15.8 °F 86% 30.22 in 10.0 mi NNW 5.8 mph - N/A   Clear
10:53 PM 17.6 °F 8.2 °F 15.8 °F 93% 30.22 in 10.0 mi NNW 6.9 mph - N/A   Clear
11:12 PM 17.6 °F 8.2 °F 15.8 °F 93% 30.22 in 10.0 mi NNW 6.9 mph - N/A   Clear
11:33 PM 17.6 °F 8.2 °F 14.0 °F 86% 30.22 in 10.0 mi North 6.9 mph - N/A   Clear